User: anonymous   Login
Location: Unspecified
(0.0000°N, 0.0000°E)
Time: 04:31:15
(UTC+00:00)
Language:

CZ-11 R/B - Orbit

View from above orbital plane
View from above orbital plane
View from above satellite
View from above satellite

Ground track
Ground track

The orbit data is extracted from the following two-line orbital elements,

1 41847U 16066G   18350.70315251  .00000055  00000-0  18243-4 0  9996
2 41847  98.7314  23.2500 0366997  62.2150 301.5736 14.37944629110552
Epoch (UTC): 16 December 2018 16:52:32
Eccentricity: 0.0366997
inclination: 98.7314°
perigee height: 503 km
apogee height: 1027 km
right ascension of ascending node: 23.2500°
argument of perigee: 62.2150°
revolutions per day: 14.37944629
mean anomaly at epoch: 301.5736°
orbit number at epoch: 11055

The dashed part of the orbit path shows where the satellite is in the earth's shadow,  

DLR